Regional Weather Roundup
Issued by NWS

Home | Current Version | Previous Version | Text Only | Print | Product List | Glossary Off
Versions: 1 2 3 4 5 6 7 8 9 10 11 12 13 14 15 16 17 18 19 20 21 22 23 24 25 26 27 28 29 30 31 32 33 34 35 36 37 38 39 40 41 42 43 44 45 46 47 48 49 50

000
ASUS43 KDTX 261310
RWRMI
MICHIGAN HOURLY REGIONAL WEATHER ROUNDUP
NATIONAL WEATHER SERVICE DETROIT/PONTIAC MI
900 AM EDT MON SEP 26 2016

NOTE: "FAIR" INDICATES FEW OR NO CLOUDS BELOW 12,000 FEET WITH NO
SIGNIFICANT WEATHER AND/OR OBSTRUCTION TO VISIBILITY.

MIZ047>049-052>055-059>063-066>070-074>076-081>083-261400-
SOUTHEAST LOWER MICHIGAN

CITY           SKY/WX    TMP DP  RH WIND       PRES   REMARKS
ADRIAN         LGT RAIN  61  60  97 W7        29.92F
ALMA           CLOUDY    60  57  91 W15       29.87R
ANN ARBOR      CLOUDY    62  61  96 SW8       29.90R
BAD AXE        CLOUDY    61  58  91 SW8       29.83S
CARO           CLOUDY    62  60  96 SW6       29.83F
DETROIT CITY   RAIN      63  63 100 W5        29.90R FOG
DETROIT        LGT RAIN  63  62  97 W6        29.90F
FLINT          LGT RAIN  61  58  90 W9        29.86S
GROSSE ILE     LGT RAIN  63  61  93 W8G16     29.89S
HILLSDALE      CLOUDY    59  55  88 W7        29.92S
HOWELL         RAIN      61  59  92 SW7       29.87F

CITY           SKY/WX    TMP DP  RH WIND       PRES   REMARKS
JACKSON        LGT RAIN  60  59  96 SW9       29.92R
LAMBERTVILLE   LGT RAIN  63  60  92 W3        29.92F
LANSING        LGT RAIN  60  57  89 W13G21    29.89R
LAPEER         LGT RAIN  62  60  93 W6        29.85F
MASON          LGT RAIN  59  57  93 W6        29.90F
MONROE         CLOUDY    61  60  96 NW6       29.89F
MT. CLEMENS    LGT RAIN  63  61  92 W7        29.86R
PONTIAC        LGT RAIN  62  60  93 SW8       29.87F
PORT HOPE        N/A     62  59  90 SW5       29.80S
PORT HURON     HVY RAIN  63  61  94 CALM      29.86F
TRI CITIES     LGT RAIN  61  60  97 W13       29.85S FOG
MIDLAND        LGT RAIN  60  58  95 W12       29.84R
TROY           HVY RAIN  64  61  89 SW8       29.92R
SAGINAW HB     LGT RAIN  61  59  94 SW7G16    29.84S
$$
MIZ043>046-050>051-056>058-064>065-071>073-077>080-261400-
SOUTHWEST LOWER MICHIGAN

CITY           SKY/WX    TMP DP  RH WIND       PRES   REMARKS
BATTLE CREEK   LGT RAIN  60  59  96 W13       29.92S
BENTON HARBOR  CLOUDY    62  47  57 W14       29.95R
BIG RAPIDS     CLOUDY    56  52  85 W7        29.86S
COLDWATER      DRIZZLE   59  58  98 W7        29.92F
FREMONT        FAIR      56  47  71 W6        29.87S
HOLLAND        CLOUDY    62  48  60 W16G24    29.92R
GRAND RAPIDS   CLOUDY    59  51  75 W10       29.90S
IONIA          PTSUNNY   59  55  89 W10       29.89R
KALAMAZOO      CLOUDY    60  56  86 W9        29.94R
LUDINGTON      CLOUDY    59  48  68 W14G25    29.84S
MARSHALL       CLOUDY    59  59  98 SW7       29.90F
MOUNT PLEASANT CLOUDY    59  56  89 W7        29.84R
MUSKEGON       CLOUDY    62  47  57 W15G26    29.90R
SOUTH HAVEN    CLOUDY    63  49  61 W10G18    29.94S
$$
MIZ016>042-261400-
NORTHERN LOWER MICHIGAN

CITY           SKY/WX    TMP DP  RH WIND       PRES   REMARKS
ALPENA         LGT RAIN  59  56  89 SW6       29.77F
BEAVER ISLAND  CLOUDY    59  52  77 SW17G24   29.71S
BELLAIRE       CLOUDY    59  53  80 SW8G17    29.76S
CADILLAC       CLOUDY    54  48  82 SW12      29.82R
CHARLEVOIX     CLOUDY    58  53  83 SW10G23   29.77S
FRANKFORT      CLOUDY    58  46  64 W14G23    29.80S
GAYLORD        CLOUDY    57  53  86 SW13      29.77S
GRAYLING       CLOUDY    57  55  93 SW8       29.80S
HARBOR SPRINGS CLOUDY    58  55  89 SW12G17   29.72F
HOUGHTON LAKE  CLOUDY    58  53  84 W14G25    29.83R
MANISTEE       CLOUDY    58  46  64 W22G32    29.82S
OSCODA         LGT RAIN  58  58  99 SW9       29.78F
PELLSTON       CLOUDY    59  54  83 SW8       29.73S
ROGERS CITY    RAIN      58  55  92 S7        29.75F
TRAVERSE CITY  CLOUDY    58  51  78 SW8G16    29.77S
$$
MIZ007>008-015-261400-
EASTERN UPPER MICHIGAN

CITY           SKY/WX    TMP DP  RH WIND       PRES   REMARKS
KINROSS        LGT RAIN  58  57  97 S8        29.68F
MACKINAC ISLAN LGT RAIN  58  58 100 S12       29.70S
NEWBERRY       CLOUDY    56  55  95 SW8       29.67S
S. S. MARIE    CLOUDY    59  58  96 S8        29.66F
MUNISING         N/A     54  52  93 S7        29.65F
$$
MIZ004>006-011>014-085-261400-
CENTRAL UPPER MICHIGAN

CITY           SKY/WX    TMP DP  RH WIND       PRES   REMARKS
MANISTIQUE     CLOUDY    55  51  86 SW12G22   29.68F
ESCANABA       SUNNY     51  47  86 SW10      29.71F
MENOMINEE      MOSUNNY   52  45  77 SW9       29.76F
SAWYER-GWINN   MOSUNNY   50  46  87 SW13      29.66F
$$
MIZ001>003-009>011-084-261400-
WESTERN UPPER MICHIGAN

CITY           SKY/WX    TMP DP  RH WIND       PRES   REMARKS
IRON MOUNTAIN  PTSUNNY   52  44  74 SW12      29.69F
HOUGHTON       LGT RAIN  51  48  89 S12G20    29.55F FOG
COPPER HARBOR    N/A     53  48  83 W10G21    29.54F
IRONWOOD       LGT RAIN  49  47  93 W20G28    29.66S
$$

ABBREVIATIONS USED IN REMARKS
   TC - TEMPERATURE IN CELSIUS
  WCI - WIND CHILL INDEX
   HX - HEAT INDEX
  VSB - VISIBILITY




USA.gov is the U.S. government's official web portal to all federal, state and local government web resources and services.